Voltar ao catálogo

SL-6 R/B(2)

AtivoHEO
NORAD 7373·ROCKET BODY·🇷🇺 Russia

Lançado Apr 26, 1974 de Plesetsk Cosmodrome

Loading…

Próximas Passagens (próximas 24 horas)

TLE

AtualizadoSource: Space-Track

Época: Sep 14, 2026, 00:19 UTC

1 07373U 74026E   26257.01348186 -.00000517  00000-0  00000-0 0  9996
2 07373  64.0447 282.3339 7048674 268.2988  17.1292  2.06589991388770

Acompanhe SL-6 R/B(2) em tempo real com AllMySat

Download on the App Store